owner,sensor,date,latitude,longitude,relative_humidity,qcFlag 
COMPS,ioos:station:USF.COMPS:C13:1,2015-04-01T04:05:00Z,26.0630,-83.0730,75.72,1111122 
COMPS,ioos:station:USF.COMPS:C13:1,2015-04-01T04:35:00Z,26.0630,-83.0730,75.66,1111122 
COMPS,ioos:station:USF.COMPS:C13:1,2015-04-01T05:05:00Z,26.0630,-83.0730,75.46,1111122 
COMPS,ioos:station:USF.COMPS:C13:1,2015-04-01T05:35:00Z,26.0630,-83.0730,76.19,1111122 
COMPS,ioos:station:USF.COMPS:C13:1,2015-04-01T06:05:00Z,26.0630,-83.0730,76.6,1111122 
COMPS,ioos:station:USF.COMPS:C13:1,2015-04-01T06:35:00Z,26.0630,-83.0730,77.27,1111122 
COMPS,ioos:station:USF.COMPS:C13:1,2015-04-01T07:05:00Z,26.0630,-83.0730,76.85,1111122 
COMPS,ioos:station:USF.COMPS:C13:1,2015-04-01T07:35:00Z,26.0630,-83.0730,76.63,1111122 
COMPS,ioos:station:USF.COMPS:C13:1,2015-04-01T08:05:00Z,26.0630,-83.0730,77.24,1111122 
COMPS,ioos:station:USF.COMPS:C13:1,2015-04-01T08:35:00Z,26.0630,-83.0730,76.89,1111122 
COMPS,ioos:station:USF.COMPS:C13:1,2015-04-01T09:05:00Z,26.0630,-83.0730,77.75,1111122 
COMPS,ioos:station:USF.COMPS:C13:1,2015-04-01T09:35:00Z,26.0630,-83.0730,77.91,1111122 
COMPS,ioos:station:USF.COMPS:C13:1,2015-04-01T10:05:00Z,26.0630,-83.0730,77.15,1111122 
COMPS,ioos:station:USF.COMPS:C13:1,2015-04-01T10:35:00Z,26.0630,-83.0730,76.11,1111122 
COMPS,ioos:station:USF.COMPS:C13:1,2015-04-01T11:05:00Z,26.0630,-83.0730,76.84,1111122 
COMPS,ioos:station:USF.COMPS:C13:1,2015-04-01T11:35:00Z,26.0630,-83.0730,76.22,1111122 
COMPS,ioos:station:USF.COMPS:C13:1,2015-04-01T12:05:00Z,26.0630,-83.0730,75.15,1111122 
COMPS,ioos:station:USF.COMPS:C13:1,2015-04-01T12:35:00Z,26.0630,-83.0730,73.85,1111122 
COMPS,ioos:station:USF.COMPS:C13:1,2015-04-01T13:05:00Z,26.0630,-83.0730,74.68,1111122 
COMPS,ioos:station:USF.COMPS:C13:1,2015-04-01T13:35:00Z,26.0630,-83.0730,74.47,1111122 
COMPS,ioos:station:USF.COMPS:C13:1,2015-04-01T14:05:00Z,26.0630,-83.0730,74.58,1111122 
COMPS,ioos:station:USF.COMPS:C13:1,2015-04-01T14:35:00Z,26.0630,-83.0730,74.34,1111122 
COMPS,ioos:station:USF.COMPS:C13:1,2015-04-01T15:05:00Z,26.0630,-83.0730,74.55,1111122 
COMPS,ioos:station:USF.COMPS:C13:1,2015-04-01T15:35:00Z,26.0630,-83.0730,74.28,1111122 
COMPS,ioos:station:USF.COMPS:C13:1,2015-04-01T16:05:00Z,26.0630,-83.0730,74.24,1111122 
COMPS,ioos:station:USF.COMPS:C13:1,2015-04-01T16:35:00Z,26.0630,-83.0730,75.41,1111122 
COMPS,ioos:station:USF.COMPS:C13:1,2015-04-01T17:05:00Z,26.0630,-83.0730,78.65,1111122 
COMPS,ioos:station:USF.COMPS:C13:1,2015-04-01T17:35:00Z,26.0630,-83.0730,77.99,1111122 
COMPS,ioos:station:USF.COMPS:C13:1,2015-04-01T18:05:00Z,26.0630,-83.0730,75.29,1111122 
COMPS,ioos:station:USF.COMPS:C13:1,2015-04-01T18:35:00Z,26.0630,-83.0730,74.5,1111122 
COMPS,ioos:station:USF.COMPS:C13:1,2015-04-01T19:05:00Z,26.0630,-83.0730,74.35,1111122 
COMPS,ioos:station:USF.COMPS:C13:1,2015-04-01T19:35:00Z,26.0630,-83.0730,73.64,1111122 
COMPS,ioos:station:USF.COMPS:C13:1,2015-04-01T20:05:00Z,26.0630,-83.0730,72.85,1111122 
COMPS,ioos:station:USF.COMPS:C13:1,2015-04-01T20:35:00Z,26.0630,-83.0730,67.87,1111122 
COMPS,ioos:station:USF.COMPS:C13:1,2015-04-01T21:05:00Z,26.0630,-83.0730,68.8,1111122 
COMPS,ioos:station:USF.COMPS:C13:1,2015-04-01T21:35:00Z,26.0630,-83.0730,68.73,1111122 
COMPS,ioos:station:USF.COMPS:C13:1,2015-04-01T22:05:00Z,26.0630,-83.0730,69.2,1111122 
COMPS,ioos:station:USF.COMPS:C13:1,2015-04-01T22:35:00Z,26.0630,-83.0730,65.34,1111122 
COMPS,ioos:station:USF.COMPS:C13:1,2015-04-01T23:05:00Z,26.0630,-83.0730,65.28,1111122 
COMPS,ioos:station:USF.COMPS:C13:1,2015-04-01T23:35:00Z,26.0630,-83.0730,66.99,1111122 
COMPS,ioos:station:USF.COMPS:C13:1,2015-04-02T02:05:00Z,26.0630,-83.0730,72.9,1111122 
COMPS,ioos:station:USF.COMPS:C13:1,2015-04-02T02:35:00Z,26.0630,-83.0730,73.34,1111122 
COMPS,ioos:station:USF.COMPS:C13:1,2015-04-02T03:05:00Z,26.0630,-83.0730,74.03,1111122 
COMPS,ioos:station:USF.COMPS:C13:1,2015-04-02T03:35:00Z,26.0630,-83.0730,73.96,1111122 
COMPS,ioos:station:USF.COMPS:C13:1,2015-04-02T05:05:00Z,26.0630,-83.0730,74.69,1111122 
COMPS,ioos:station:USF.COMPS:C13:1,2015-04-02T05:35:00Z,26.0630,-83.0730,74.72,1111122 
COMPS,ioos:station:USF.COMPS:C13:1,2015-04-02T06:05:00Z,26.0630,-83.0730,75.22,1111122 
COMPS,ioos:station:USF.COMPS:C13:1,2015-04-02T06:35:00Z,26.0630,-83.0730,75.19,1111122 
COMPS,ioos:station:USF.COMPS:C13:1,2015-04-02T07:05:00Z,26.0630,-83.0730,73.54,1111122 
COMPS,ioos:station:USF.COMPS:C13:1,2015-04-02T07:35:00Z,26.0630,-83.0730,73.98,1111122 
COMPS,ioos:station:USF.COMPS:C13:1,2015-04-02T08:05:00Z,26.0630,-83.0730,72.35,1111122 
COMPS,ioos:station:USF.COMPS:C13:1,2015-04-02T08:35:00Z,26.0630,-83.0730,72.67,1111122 
COMPS,ioos:station:USF.COMPS:C13:1,2015-04-02T09:05:00Z,26.0630,-83.0730,72.97,1111122 
COMPS,ioos:station:USF.COMPS:C13:1,2015-04-02T09:35:00Z,26.0630,-83.0730,74.74,1111122 
COMPS,ioos:station:USF.COMPS:C13:1,2015-04-02T10:05:00Z,26.0630,-83.0730,73.35,1111122 
COMPS,ioos:station:USF.COMPS:C13:1,2015-04-02T10:35:00Z,26.0630,-83.0730,74.27,1111122 
COMPS,ioos:station:USF.COMPS:C13:1,2015-04-02T11:05:00Z,26.0630,-83.0730,75.43,1111122 
COMPS,ioos:station:USF.COMPS:C13:1,2015-04-02T11:35:00Z,26.0630,-83.0730,72.12,1111122 
COMPS,ioos:station:USF.COMPS:C13:1,2015-04-02T12:05:00Z,26.0630,-83.0730,68.99,1111122 
COMPS,ioos:station:USF.COMPS:C13:1,2015-04-02T12:35:00Z,26.0630,-83.0730,71.8,1111122 
COMPS,ioos:station:USF.COMPS:C13:1,2015-04-02T13:05:00Z,26.0630,-83.0730,77.87,1111122 
COMPS,ioos:station:USF.COMPS:C13:1,2015-04-02T13:35:00Z,26.0630,-83.0730,82.15,1111122 
COMPS,ioos:station:USF.COMPS:C13:1,2015-04-02T14:05:00Z,26.0630,-83.0730,80.13,1111122 
COMPS,ioos:station:USF.COMPS:C13:1,2015-04-02T14:35:00Z,26.0630,-83.0730,78.85,1111122 
COMPS,ioos:station:USF.COMPS:C13:1,2015-04-02T15:05:00Z,26.0630,-83.0730,77.68,1111122 
COMPS,ioos:station:USF.COMPS:C13:1,2015-04-02T15:35:00Z,26.0630,-83.0730,77.23,1111122 
COMPS,ioos:station:USF.COMPS:C13:1,2015-04-02T16:05:00Z,26.0630,-83.0730,78.87,1111122 
COMPS,ioos:station:USF.COMPS:C13:1,2015-04-02T16:35:00Z,26.0630,-83.0730,78.99,1111122 
COMPS,ioos:station:USF.COMPS:C13:1,2015-04-02T17:05:00Z,26.0630,-83.0730,78.98,1111122 
COMPS,ioos:station:USF.COMPS:C13:1,2015-04-02T17:35:00Z,26.0630,-83.0730,78.95,1111122 
COMPS,ioos:station:USF.COMPS:C13:1,2015-04-02T18:05:00Z,26.0630,-83.0730,78.68,1111122 
COMPS,ioos:station:USF.COMPS:C13:1,2015-04-02T18:35:00Z,26.0630,-83.0730,77.81,1111122 
COMPS,ioos:station:USF.COMPS:C13:1,2015-04-02T19:05:00Z,26.0630,-83.0730,77.47,1111122 
COMPS,ioos:station:USF.COMPS:C13:1,2015-04-02T19:35:00Z,26.0630,-83.0730,78.61,1111122 
COMPS,ioos:station:USF.COMPS:C13:1,2015-04-02T20:05:00Z,26.0630,-83.0730,78.77,1111122 
COMPS,ioos:station:USF.COMPS:C13:1,2015-04-02T20:35:00Z,26.0630,-83.0730,78.39,1111122 
COMPS,ioos:station:USF.COMPS:C13:1,2015-04-02T21:05:00Z,26.0630,-83.0730,77.29,1111122 
COMPS,ioos:station:USF.COMPS:C13:1,2015-04-02T21:35:00Z,26.0630,-83.0730,72.83,1111122 
COMPS,ioos:station:USF.COMPS:C13:1,2015-04-02T22:05:00Z,26.0630,-83.0730,71.62,1111122 
COMPS,ioos:station:USF.COMPS:C13:1,2015-04-02T22:35:00Z,26.0630,-83.0730,70.86,1111122 
COMPS,ioos:station:USF.COMPS:C13:1,2015-04-02T23:05:00Z,26.0630,-83.0730,71.69,1111122 
COMPS,ioos:station:USF.COMPS:C13:1,2015-04-02T23:35:00Z,26.0630,-83.0730,73.57,1111122 
COMPS,ioos:station:USF.COMPS:C13:1,2015-04-03T04:05:00Z,26.0630,-83.0730,77.22,1111122 
COMPS,ioos:station:USF.COMPS:C13:1,2015-04-03T04:35:00Z,26.0630,-83.0730,78.84,1111122 
COMPS,ioos:station:USF.COMPS:C13:1,2015-04-03T05:05:00Z,26.0630,-83.0730,76.5,1111122 
COMPS,ioos:station:USF.COMPS:C13:1,2015-04-03T05:35:00Z,26.0630,-83.0730,75.94,1111122 
COMPS,ioos:station:USF.COMPS:C13:1,2015-04-03T06:05:00Z,26.0630,-83.0730,75.45,1111122 
COMPS,ioos:station:USF.COMPS:C13:1,2015-04-03T06:35:00Z,26.0630,-83.0730,77.28,1111122 
COMPS,ioos:station:USF.COMPS:C13:1,2015-04-03T07:05:00Z,26.0630,-83.0730,78.35,1111122 
COMPS,ioos:station:USF.COMPS:C13:1,2015-04-03T07:35:00Z,26.0630,-83.0730,79.71,1111122 
COMPS,ioos:station:USF.COMPS:C13:1,2015-04-03T09:05:00Z,26.0630,-83.0730,82.83,1111122 
COMPS,ioos:station:USF.COMPS:C13:1,2015-04-03T09:35:00Z,26.0630,-83.0730,76.33,1111122 
COMPS,ioos:station:USF.COMPS:C13:1,2015-04-03T10:05:00Z,26.0630,-83.0730,76.72,1111122 
COMPS,ioos:station:USF.COMPS:C13:1,2015-04-03T10:35:00Z,26.0630,-83.0730,78.64,1111122 
COMPS,ioos:station:USF.COMPS:C13:1,2015-04-03T11:05:00Z,26.0630,-83.0730,79.55,1111122 
COMPS,ioos:station:USF.COMPS:C13:1,2015-04-03T11:35:00Z,26.0630,-83.0730,80.6,1111122 
COMPS,ioos:station:USF.COMPS:C13:1,2015-04-03T12:05:00Z,26.0630,-83.0730,81.13,1111122 
COMPS,ioos:station:USF.COMPS:C13:1,2015-04-03T12:35:00Z,26.0630,-83.0730,81.6,1111122 
COMPS,ioos:station:USF.COMPS:C13:1,2015-04-03T13:05:00Z,26.0630,-83.0730,82.0,1111122 
COMPS,ioos:station:USF.COMPS:C13:1,2015-04-03T13:35:00Z,26.0630,-83.0730,81.34,1111122 
COMPS,ioos:station:USF.COMPS:C13:1,2015-04-03T14:05:00Z,26.0630,-83.0730,81.43,1111122 
COMPS,ioos:station:USF.COMPS:C13:1,2015-04-03T14:35:00Z,26.0630,-83.0730,80.53,1111122 
COMPS,ioos:station:USF.COMPS:C13:1,2015-04-03T15:05:00Z,26.0630,-83.0730,78.48,1111122 
COMPS,ioos:station:USF.COMPS:C13:1,2015-04-03T15:35:00Z,26.0630,-83.0730,76.4,1111122 
COMPS,ioos:station:USF.COMPS:C13:1,2015-04-03T16:05:00Z,26.0630,-83.0730,75.34,1111122 
COMPS,ioos:station:USF.COMPS:C13:1,2015-04-03T16:35:00Z,26.0630,-83.0730,74.57,1111122 
COMPS,ioos:station:USF.COMPS:C13:1,2015-04-03T17:05:00Z,26.0630,-83.0730,74.17,1111122 
COMPS,ioos:station:USF.COMPS:C13:1,2015-04-03T17:35:00Z,26.0630,-83.0730,75.76,1111122 
COMPS,ioos:station:USF.COMPS:C13:1,2015-04-03T18:05:00Z,26.0630,-83.0730,74.92,1111122 
COMPS,ioos:station:USF.COMPS:C13:1,2015-04-03T18:35:00Z,26.0630,-83.0730,75.16,1111122 
COMPS,ioos:station:USF.COMPS:C13:1,2015-04-03T19:05:00Z,26.0630,-83.0730,75.33,1111122 
COMPS,ioos:station:USF.COMPS:C13:1,2015-04-03T19:35:00Z,26.0630,-83.0730,75.12,1111122 
COMPS,ioos:station:USF.COMPS:C13:1,2015-04-03T20:05:00Z,26.0630,-83.0730,75.83,1111122 
COMPS,ioos:station:USF.COMPS:C13:1,2015-04-03T20:35:00Z,26.0630,-83.0730,76.79,1111122 
COMPS,ioos:station:USF.COMPS:C13:1,2015-04-03T21:05:00Z,26.0630,-83.0730,74.76,1111122 
COMPS,ioos:station:USF.COMPS:C13:1,2015-04-03T21:35:00Z,26.0630,-83.0730,72.31,1111122 
COMPS,ioos:station:USF.COMPS:C13:1,2015-04-03T22:05:00Z,26.0630,-83.0730,69.26,1111122 
COMPS,ioos:station:USF.COMPS:C13:1,2015-04-03T22:35:00Z,26.0630,-83.0730,65.3,1111122 
COMPS,ioos:station:USF.COMPS:C13:1,2015-04-03T23:05:00Z,26.0630,-83.0730,65.64,1111122 
COMPS,ioos:station:USF.COMPS:C13:1,2015-04-03T23:35:00Z,26.0630,-83.0730,72.75,1111122 
COMPS,ioos:station:USF.COMPS:C13:1,2015-04-04T00:05:00Z,26.0630,-83.0730,76.3,1111122 
COMPS,ioos:station:USF.COMPS:C13:1,2015-04-04T00:35:00Z,26.0630,-83.0730,76.37,1111122 
COMPS,ioos:station:USF.COMPS:C13:1,2015-04-04T04:05:00Z,26.0630,-83.0730,80.65,1111122 
COMPS,ioos:station:USF.COMPS:C13:1,2015-04-04T04:35:00Z,26.0630,-83.0730,80.55,1111122 
COMPS,ioos:station:USF.COMPS:C13:1,2015-04-04T05:05:00Z,26.0630,-83.0730,81.02,1111122 
COMPS,ioos:station:USF.COMPS:C13:1,2015-04-04T05:35:00Z,26.0630,-83.0730,81.49,1111122 
COMPS,ioos:station:USF.COMPS:C13:1,2015-04-04T06:05:00Z,26.0630,-83.0730,82.66,1111122 
COMPS,ioos:station:USF.COMPS:C13:1,2015-04-04T06:35:00Z,26.0630,-83.0730,83.24,1111122 
COMPS,ioos:station:USF.COMPS:C13:1,2015-04-04T07:05:00Z,26.0630,-83.0730,82.65,1111122 
COMPS,ioos:station:USF.COMPS:C13:1,2015-04-04T07:35:00Z,26.0630,-83.0730,82.16,1111122 
COMPS,ioos:station:USF.COMPS:C13:1,2015-04-04T08:05:00Z,26.0630,-83.0730,82.89,1111122 
COMPS,ioos:station:USF.COMPS:C13:1,2015-04-04T08:35:00Z,26.0630,-83.0730,83.25,1111122 
COMPS,ioos:station:USF.COMPS:C13:1,2015-04-04T09:05:00Z,26.0630,-83.0730,83.89,1111122 
COMPS,ioos:station:USF.COMPS:C13:1,2015-04-04T09:35:00Z,26.0630,-83.0730,83.86,1111122 
COMPS,ioos:station:USF.COMPS:C13:1,2015-04-04T10:05:00Z,26.0630,-83.0730,84.14,1111122 
COMPS,ioos:station:USF.COMPS:C13:1,2015-04-04T10:35:00Z,26.0630,-83.0730,83.47,1111122 
COMPS,ioos:station:USF.COMPS:C13:1,2015-04-04T11:05:00Z,26.0630,-83.0730,82.4,1111122 
COMPS,ioos:station:USF.COMPS:C13:1,2015-04-04T11:35:00Z,26.0630,-83.0730,81.86,1111122 
COMPS,ioos:station:USF.COMPS:C13:1,2015-04-04T12:05:00Z,26.0630,-83.0730,80.11,1111122 
COMPS,ioos:station:USF.COMPS:C13:1,2015-04-04T12:35:00Z,26.0630,-83.0730,82.98,1111122 
COMPS,ioos:station:USF.COMPS:C13:1,2015-04-04T13:05:00Z,26.0630,-83.0730,79.47,1111122 
COMPS,ioos:station:USF.COMPS:C13:1,2015-04-04T13:35:00Z,26.0630,-83.0730,79.91,1111122 
COMPS,ioos:station:USF.COMPS:C13:1,2015-04-04T14:05:00Z,26.0630,-83.0730,80.53,1111122 
COMPS,ioos:station:USF.COMPS:C13:1,2015-04-04T14:35:00Z,26.0630,-83.0730,79.15,1111122 
COMPS,ioos:station:USF.COMPS:C13:1,2015-04-04T15:05:00Z,26.0630,-83.0730,79.87,1111122 
COMPS,ioos:station:USF.COMPS:C13:1,2015-04-04T15:35:00Z,26.0630,-83.0730,81.57,1111122 
COMPS,ioos:station:USF.COMPS:C13:1,2015-04-04T16:05:00Z,26.0630,-83.0730,81.71,1111122 
COMPS,ioos:station:USF.COMPS:C13:1,2015-04-04T16:35:00Z,26.0630,-83.0730,80.22,1111122 
COMPS,ioos:station:USF.COMPS:C13:1,2015-04-04T17:05:00Z,26.0630,-83.0730,79.48,1111122 
COMPS,ioos:station:USF.COMPS:C13:1,2015-04-04T17:35:00Z,26.0630,-83.0730,81.35,1111122 
COMPS,ioos:station:USF.COMPS:C13:1,2015-04-04T18:05:00Z,26.0630,-83.0730,79.07,1111122 
COMPS,ioos:station:USF.COMPS:C13:1,2015-04-04T18:35:00Z,26.0630,-83.0730,78.74,1111122 
COMPS,ioos:station:USF.COMPS:C13:1,2015-04-04T19:05:00Z,26.0630,-83.0730,76.46,1111122 
COMPS,ioos:station:USF.COMPS:C13:1,2015-04-04T19:35:00Z,26.0630,-83.0730,76.25,1111122 
COMPS,ioos:station:USF.COMPS:C13:1,2015-04-04T20:05:00Z,26.0630,-83.0730,76.69,1111122 
COMPS,ioos:station:USF.COMPS:C13:1,2015-04-04T20:35:00Z,26.0630,-83.0730,74.85,1111122 
COMPS,ioos:station:USF.COMPS:C13:1,2015-04-04T21:05:00Z,26.0630,-83.0730,74.27,1111122 
COMPS,ioos:station:USF.COMPS:C13:1,2015-04-04T21:35:00Z,26.0630,-83.0730,73.91,1111122 
COMPS,ioos:station:USF.COMPS:C13:1,2015-04-04T22:05:00Z,26.0630,-83.0730,73.34,1111122 
COMPS,ioos:station:USF.COMPS:C13:1,2015-04-04T22:35:00Z,26.0630,-83.0730,73.83,1111122 
COMPS,ioos:station:USF.COMPS:C13:1,2015-04-04T23:05:00Z,26.0630,-83.0730,74.27,1111122 
COMPS,ioos:station:USF.COMPS:C13:1,2015-04-04T23:35:00Z,26.0630,-83.0730,75.24,1111122 
COMPS,ioos:station:USF.COMPS:C13:1,2015-04-05T00:05:00Z,26.0630,-83.0730,77.08,1111122 
COMPS,ioos:station:USF.COMPS:C13:1,2015-04-05T00:35:00Z,26.0630,-83.0730,78.16,1111122 
COMPS,ioos:station:USF.COMPS:C13:1,2015-04-05T01:05:00Z,26.0630,-83.0730,78.37,1111122 
COMPS,ioos:station:USF.COMPS:C13:1,2015-04-05T01:35:00Z,26.0630,-83.0730,76.34,1111122 
COMPS,ioos:station:USF.COMPS:C13:1,2015-04-05T02:05:00Z,26.0630,-83.0730,77.88,1111122 
COMPS,ioos:station:USF.COMPS:C13:1,2015-04-05T02:35:00Z,26.0630,-83.0730,76.18,1111122 
COMPS,ioos:station:USF.COMPS:C13:1,2015-04-05T03:05:00Z,26.0630,-83.0730,75.17,1111122 
COMPS,ioos:station:USF.COMPS:C13:1,2015-04-05T03:35:00Z,26.0630,-83.0730,74.91,1111122 
COMPS,ioos:station:USF.COMPS:C13:1,2015-04-05T04:05:00Z,26.0630,-83.0730,75.95,1111122 
COMPS,ioos:station:USF.COMPS:C13:1,2015-04-05T04:35:00Z,26.0630,-83.0730,77.11,1111122 
COMPS,ioos:station:USF.COMPS:C13:1,2015-04-05T05:05:00Z,26.0630,-83.0730,77.07,1111122 
COMPS,ioos:station:USF.COMPS:C13:1,2015-04-05T05:35:00Z,26.0630,-83.0730,77.11,1111122 
COMPS,ioos:station:USF.COMPS:C13:1,2015-04-05T06:05:00Z,26.0630,-83.0730,78.37,1111122 
COMPS,ioos:station:USF.COMPS:C13:1,2015-04-05T06:35:00Z,26.0630,-83.0730,78.05,1111122 
COMPS,ioos:station:USF.COMPS:C13:1,2015-04-05T07:05:00Z,26.0630,-83.0730,78.22,1111122 
COMPS,ioos:station:USF.COMPS:C13:1,2015-04-05T07:35:00Z,26.0630,-83.0730,81.29,1111122 
COMPS,ioos:station:USF.COMPS:C13:1,2015-04-05T08:05:00Z,26.0630,-83.0730,81.65,1111122 
COMPS,ioos:station:USF.COMPS:C13:1,2015-04-05T08:35:00Z,26.0630,-83.0730,83.6,1111122 
COMPS,ioos:station:USF.COMPS:C13:1,2015-04-05T09:05:00Z,26.0630,-83.0730,85.01,1111122 
COMPS,ioos:station:USF.COMPS:C13:1,2015-04-05T09:35:00Z,26.0630,-83.0730,85.11,1111122 
COMPS,ioos:station:USF.COMPS:C13:1,2015-04-05T10:05:00Z,26.0630,-83.0730,85.37,1111122 
COMPS,ioos:station:USF.COMPS:C13:1,2015-04-05T10:35:00Z,26.0630,-83.0730,85.44,1111122 
COMPS,ioos:station:USF.COMPS:C13:1,2015-04-05T11:05:00Z,26.0630,-83.0730,85.35,1111122 
COMPS,ioos:station:USF.COMPS:C13:1,2015-04-05T11:35:00Z,26.0630,-83.0730,86.28,1111122 
COMPS,ioos:station:USF.COMPS:C13:1,2015-04-05T12:05:00Z,26.0630,-83.0730,86.38,1111122 
COMPS,ioos:station:USF.COMPS:C13:1,2015-04-05T12:35:00Z,26.0630,-83.0730,86.35,1111122 
COMPS,ioos:station:USF.COMPS:C13:1,2015-04-05T13:05:00Z,26.0630,-83.0730,86.07,1111122 
COMPS,ioos:station:USF.COMPS:C13:1,2015-04-05T13:35:00Z,26.0630,-83.0730,85.88,1111122 
COMPS,ioos:station:USF.COMPS:C13:1,2015-04-05T14:05:00Z,26.0630,-83.0730,86.21,1111122 
COMPS,ioos:station:USF.COMPS:C13:1,2015-04-05T14:35:00Z,26.0630,-83.0730,85.44,1111122 
COMPS,ioos:station:USF.COMPS:C13:1,2015-04-05T15:05:00Z,26.0630,-83.0730,85.23,1111122 
COMPS,ioos:station:USF.COMPS:C13:1,2015-04-05T15:35:00Z,26.0630,-83.0730,85.78,1111122 
COMPS,ioos:station:USF.COMPS:C13:1,2015-04-05T16:05:00Z,26.0630,-83.0730,85.58,1111122 
COMPS,ioos:station:USF.COMPS:C13:1,2015-04-05T16:35:00Z,26.0630,-83.0730,84.38,1111122 
COMPS,ioos:station:USF.COMPS:C13:1,2015-04-05T17:05:00Z,26.0630,-83.0730,83.82,1111122 
COMPS,ioos:station:USF.COMPS:C13:1,2015-04-05T17:35:00Z,26.0630,-83.0730,83.37,1111122 
COMPS,ioos:station:USF.COMPS:C13:1,2015-04-05T18:05:00Z,26.0630,-83.0730,83.74,1111122 
COMPS,ioos:station:USF.COMPS:C13:1,2015-04-05T18:35:00Z,26.0630,-83.0730,84.11,1111122 
COMPS,ioos:station:USF.COMPS:C13:1,2015-04-05T19:05:00Z,26.0630,-83.0730,84.03,1111122 
COMPS,ioos:station:USF.COMPS:C13:1,2015-04-05T19:35:00Z,26.0630,-83.0730,83.44,1111122 
COMPS,ioos:station:USF.COMPS:C13:1,2015-04-05T20:05:00Z,26.0630,-83.0730,80.36,1111122 
COMPS,ioos:station:USF.COMPS:C13:1,2015-04-05T20:35:00Z,26.0630,-83.0730,77.89,1111122 
COMPS,ioos:station:USF.COMPS:C13:1,2015-04-05T21:05:00Z,26.0630,-83.0730,76.5,1111122 
COMPS,ioos:station:USF.COMPS:C13:1,2015-04-05T21:35:00Z,26.0630,-83.0730,75.51,1111122 
COMPS,ioos:station:USF.COMPS:C13:1,2015-04-05T22:05:00Z,26.0630,-83.0730,77.47,1111122 
COMPS,ioos:station:USF.COMPS:C13:1,2015-04-05T22:35:00Z,26.0630,-83.0730,78.11,1111122 
COMPS,ioos:station:USF.COMPS:C13:1,2015-04-05T23:05:00Z,26.0630,-83.0730,76.74,1111122 
COMPS,ioos:station:USF.COMPS:C13:1,2015-04-05T23:35:00Z,26.0630,-83.0730,77.03,1111122 
COMPS,ioos:station:USF.COMPS:C13:1,2015-04-06T00:05:00Z,26.0630,-83.0730,81.87,1111122 
COMPS,ioos:station:USF.COMPS:C13:1,2015-04-06T00:35:00Z,26.0630,-83.0730,82.65,1111122 
COMPS,ioos:station:USF.COMPS:C13:1,2015-04-06T01:05:00Z,26.0630,-83.0730,82.66,1111122 
COMPS,ioos:station:USF.COMPS:C13:1,2015-04-06T01:35:00Z,26.0630,-83.0730,83.07,1111122 
COMPS,ioos:station:USF.COMPS:C13:1,2015-04-06T04:05:00Z,26.0630,-83.0730,83.77,1111122 
COMPS,ioos:station:USF.COMPS:C13:1,2015-04-06T04:35:00Z,26.0630,-83.0730,79.98,1111122 
COMPS,ioos:station:USF.COMPS:C13:1,2015-04-06T05:05:00Z,26.0630,-83.0730,86.74,1111122 
COMPS,ioos:station:USF.COMPS:C13:1,2015-04-06T05:35:00Z,26.0630,-83.0730,88.44,1111122 
COMPS,ioos:station:USF.COMPS:C13:1,2015-04-06T06:05:00Z,26.0630,-83.0730,85.67,1111122 
COMPS,ioos:station:USF.COMPS:C13:1,2015-04-06T06:35:00Z,26.0630,-83.0730,85.6,1111122 
COMPS,ioos:station:USF.COMPS:C13:1,2015-04-06T07:05:00Z,26.0630,-83.0730,86.08,1111122 
COMPS,ioos:station:USF.COMPS:C13:1,2015-04-06T07:35:00Z,26.0630,-83.0730,84.56,1111122 
COMPS,ioos:station:USF.COMPS:C13:1,2015-04-06T08:05:00Z,26.0630,-83.0730,84.35,1111122 
COMPS,ioos:station:USF.COMPS:C13:1,2015-04-06T08:35:00Z,26.0630,-83.0730,82.41,1111122 
COMPS,ioos:station:USF.COMPS:C13:1,2015-04-06T09:05:00Z,26.0630,-83.0730,81.2,1111122 
COMPS,ioos:station:USF.COMPS:C13:1,2015-04-06T09:35:00Z,26.0630,-83.0730,82.67,1111122 
COMPS,ioos:station:USF.COMPS:C13:1,2015-04-06T10:05:00Z,26.0630,-83.0730,81.9,1111122 
COMPS,ioos:station:USF.COMPS:C13:1,2015-04-06T10:35:00Z,26.0630,-83.0730,79.68,1111122 
COMPS,ioos:station:USF.COMPS:C13:1,2015-04-06T11:05:00Z,26.0630,-83.0730,82.63,1111122 
COMPS,ioos:station:USF.COMPS:C13:1,2015-04-06T11:35:00Z,26.0630,-83.0730,85.09,1111122 
COMPS,ioos:station:USF.COMPS:C13:1,2015-04-06T12:05:00Z,26.0630,-83.0730,86.89,1111122 
COMPS,ioos:station:USF.COMPS:C13:1,2015-04-06T12:35:00Z,26.0630,-83.0730,85.31,1111122 
COMPS,ioos:station:USF.COMPS:C13:1,2015-04-06T13:05:00Z,26.0630,-83.0730,82.45,1111122 
COMPS,ioos:station:USF.COMPS:C13:1,2015-04-06T13:35:00Z,26.0630,-83.0730,82.05,1111122 
COMPS,ioos:station:USF.COMPS:C13:1,2015-04-06T14:05:00Z,26.0630,-83.0730,81.45,1111122 
COMPS,ioos:station:USF.COMPS:C13:1,2015-04-06T14:35:00Z,26.0630,-83.0730,82.05,1111122 
COMPS,ioos:station:USF.COMPS:C13:1,2015-04-06T15:05:00Z,26.0630,-83.0730,82.99,1111122 
COMPS,ioos:station:USF.COMPS:C13:1,2015-04-06T15:35:00Z,26.0630,-83.0730,83.24,1111122 
COMPS,ioos:station:USF.COMPS:C13:1,2015-04-06T16:05:00Z,26.0630,-83.0730,83.29,1111122 
COMPS,ioos:station:USF.COMPS:C13:1,2015-04-06T16:35:00Z,26.0630,-83.0730,84.39,1111122 
COMPS,ioos:station:USF.COMPS:C13:1,2015-04-06T17:05:00Z,26.0630,-83.0730,84.98,1111122 
COMPS,ioos:station:USF.COMPS:C13:1,2015-04-06T17:35:00Z,26.0630,-83.0730,85.68,1111122 
COMPS,ioos:station:USF.COMPS:C13:1,2015-04-06T18:05:00Z,26.0630,-83.0730,84.99,1111122 
COMPS,ioos:station:USF.COMPS:C13:1,2015-04-06T18:35:00Z,26.0630,-83.0730,85.02,1111122 
COMPS,ioos:station:USF.COMPS:C13:1,2015-04-06T19:05:00Z,26.0630,-83.0730,84.17,1111122 
COMPS,ioos:station:USF.COMPS:C13:1,2015-04-06T19:35:00Z,26.0630,-83.0730,83.59,1111122 
COMPS,ioos:station:USF.COMPS:C13:1,2015-04-06T20:05:00Z,26.0630,-83.0730,82.71,1111122 
COMPS,ioos:station:USF.COMPS:C13:1,2015-04-06T20:35:00Z,26.0630,-83.0730,82.72,1111122 
COMPS,ioos:station:USF.COMPS:C13:1,2015-04-06T21:05:00Z,26.0630,-83.0730,80.79,1111122 
COMPS,ioos:station:USF.COMPS:C13:1,2015-04-06T21:35:00Z,26.0630,-83.0730,78.8,1111122 
COMPS,ioos:station:USF.COMPS:C13:1,2015-04-06T22:05:00Z,26.0630,-83.0730,77.79,1111122 
COMPS,ioos:station:USF.COMPS:C13:1,2015-04-06T22:35:00Z,26.0630,-83.0730,71.85,1111122 
COMPS,ioos:station:USF.COMPS:C13:1,2015-04-06T23:05:00Z,26.0630,-83.0730,78.36,1111122 
COMPS,ioos:station:USF.COMPS:C13:1,2015-04-06T23:35:00Z,26.0630,-83.0730,81.11,1111122 
COMPS,ioos:station:USF.COMPS:C13:1,2015-04-07T00:05:00Z,26.0630,-83.0730,81.66,1111122 
COMPS,ioos:station:USF.COMPS:C13:1,2015-04-07T00:35:00Z,26.0630,-83.0730,81.33,1111122 
COMPS,ioos:station:USF.COMPS:C13:1,2015-04-07T03:05:00Z,26.0630,-83.0730,85.65,1111122 
COMPS,ioos:station:USF.COMPS:C13:1,2015-04-07T03:35:00Z,26.0630,-83.0730,84.52,1111122 
COMPS,ioos:station:USF.COMPS:C13:1,2015-04-07T04:05:00Z,26.0630,-83.0730,83.27,1111122 
COMPS,ioos:station:USF.COMPS:C13:1,2015-04-07T04:35:00Z,26.0630,-83.0730,86.32,1111122 
COMPS,ioos:station:USF.COMPS:C13:1,2015-04-07T05:05:00Z,26.0630,-83.0730,84.25,1111122 
COMPS,ioos:station:USF.COMPS:C13:1,2015-04-07T05:35:00Z,26.0630,-83.0730,80.71,1111122 
COMPS,ioos:station:USF.COMPS:C13:1,2015-04-07T06:05:00Z,26.0630,-83.0730,80.34,1111122 
COMPS,ioos:station:USF.COMPS:C13:1,2015-04-07T06:35:00Z,26.0630,-83.0730,81.77,1111122 
COMPS,ioos:station:USF.COMPS:C13:1,2015-04-07T07:05:00Z,26.0630,-83.0730,82.14,1111122 
COMPS,ioos:station:USF.COMPS:C13:1,2015-04-07T07:35:00Z,26.0630,-83.0730,79.54,1111122 
COMPS,ioos:station:USF.COMPS:C13:1,2015-04-07T08:05:00Z,26.0630,-83.0730,81.92,1111122 
COMPS,ioos:station:USF.COMPS:C13:1,2015-04-07T08:35:00Z,26.0630,-83.0730,82.68,1111122 
COMPS,ioos:station:USF.COMPS:C13:1,2015-04-07T09:05:00Z,26.0630,-83.0730,83.45,1111122 
COMPS,ioos:station:USF.COMPS:C13:1,2015-04-07T09:35:00Z,26.0630,-83.0730,84.06,1111122 
COMPS,ioos:station:USF.COMPS:C13:1,2015-04-07T10:05:00Z,26.0630,-83.0730,86.53,1111122 
COMPS,ioos:station:USF.COMPS:C13:1,2015-04-07T10:35:00Z,26.0630,-83.0730,87.23,1111122 